Regional Weather Roundup
Issued by NWS

Home | Current Version | Previous Version | Graphics & Text | Print | Product List | Glossary On
Versions: 1 2 3 4 5 6 7 8 9 10 11 12 13 14 15 16 17 18 19 20 21 22 23 24 25 26 27 28 29 30 31 32 33 34 35 36 37 38 39 40 41 42 43 44 45 46 47 48 49 50
143
ASUS43 KLSX 110457
RWRMO

WEATHER SUMMARY FOR MISSOURI
NATIONAL WEATHER SERVICE SPRINGFIELD MO
1100 PM CST SUN DEC 10 2017

NOTE: "FAIR" INDICATES FEW OR NO CLOUDS BELOW 12,000 FEET WITH NO
       SIGNIFICANT WEATHER AND/OR OBSTRUCTIONS TO VISIBILITY.
       CURRENT SKY AND/OR WEATHER CONDITIONS ARE NOT AVAILABLE FOR
       CHILLICOTHE AND FARMINGTON.

MOZ001>031-035>038-043-044-053-054-110600-
...NORTHERN AND WESTERN MISSOURI...

CITY           SKY/WX    TMP DP  RH WIND       PRES   REMARKS
KANSAS CTY INT CLEAR     38  23  55 SW9       30.12S
LEE`S SUMMIT   CLEAR     42  24  49 SW6       30.14S
ST JOSEPH      CLEAR     25  22  88 CALM      30.11F
CHILLICOTHE      N/A     29  23  78 CALM      30.11F

$$
MOZ066>068-077>081-088>096-101>105-110600-
...SOUTHWEST MISSOURI...

CITY           SKY/WX    TMP DP  RH WIND       PRES   REMARKS
SPRINGFIELD    CLEAR     39  23  52 SW3       30.16F
JOPLIN         CLEAR     41  24  51 S7        30.19S

$$
MOZ032>034-039>042-045>050-055>058-069>072-110600-
...CENTRAL MISSOURI...

CITY           SKY/WX    TMP DP  RH WIND       PRES   REMARKS
COLUMBIA       NOT AVBL
JEFFERSON CITY CLEAR     32  24  72 CALM      30.15F
ROLLA          CLEAR     38  26  62 W7        30.14F
SEDALIA        CLEAR     41  27  57 SW9       30.15F
WARRENSBURG    CLEAR     34  25  69 S3        30.15S

$$
MOZ051-052-059>065-110600-
...EAST CENTRAL MISSOURI...

CITY           SKY/WX    TMP DP  RH WIND       PRES   REMARKS
ST LOUIS INTL  CLEAR     35  26  69 CALM      30.14S

$$
MOZ072>076-082>087-097>100-106>115-110600-
...SOUTH CENTRAL AND SOUTHEAST MISSOURI...

CITY           SKY/WX    TMP DP  RH WIND       PRES   REMARKS
CAPE GIRARDEAU CLEAR     29  27  92 CALM      30.16R
POPLAR BLUFF   CLEAR     33  28  81 SW3       30.16S
WEST PLAINS    CLEAR     38  24  57 W5        30.17F

$$



USA.gov is the U.S. government's official web portal to all federal, state and local government web resources and services.